Miscellaneous Local Product
Issued by NWS North Platte, NE

Home | Current Version | Previous Version | Graphics & Text | Print | Product List | Glossary On
Versions: 1 2 3 4 5 6 7 8 9 10 11 12 13 14 15 16 17 18 19 20 21 22 23 24 25 26 27 28 29 30 31 32 33 34 35 36 37 38 39 40 41 42 43 44 45 46 47 48 49 50
495
AXUS43 KLBF 230910
MISLBF


WESTERN AND NORTH CENTRAL NEBRASKA HOURLY WEATHER ROUNDUP
NATIONAL WEATHER SERVICE NORTH PLATTE NE
400 AM CDT SAT JUL 23 2016

NOTE: "FAIR" INDICATES FEW OR NO CLOUDS BELOW 12,000 FEET WITH NO
SIGNIFICANT WEATHER AND/OR OBSTRUCTIONS TO VISIBILITY.

NOTE: STATIONS NOT REPORTING VARIABLES SUCH AS SKY/WEATHER OR
PRESSURE ARE PROVIDED BY RAWS AND APRS NETWORKS AND ARE NOT UNDER
NATIONAL WEATHER SERVICE QUALITY CONTROL.

...OBSERVATIONS IN AND NEAR THE EASTERN PANHANDLE OF NEBRASKA...

CITY           SKY/WX    TMP DP  RH WIND       PRES   REMARKS
PINE RIDGE     CLOUDY    70  61  73 E7        29.93F
CHADRON        MOCLDY    71  62  73 S13       29.90F
ALLIANCE       CLOUDY    63  61  93 SW5       29.96F
SIDNEY         CLOUDY    68  63  84 SW9       30.01F
CRESCENT LAKE    N/A     66  61  83 SW7         N/A
$$

...OBSERVATIONS IN NORTHERN NEBRASKA AND FAR SOUTHERN SOUTH DAKOTA...

CITY           SKY/WX    TMP DP  RH WIND       PRES   REMARKS
WINNER         FAIR      80  76  87 SE10      29.88R
VALENTINE      CLOUDY    76  61  59 SW7       29.90F
THEDFORD       LGT RAIN  76  63  63 S13       29.91F
AINSWORTH      CLOUDY    70  67  89 S5        29.90F
O`NEILL        CLOUDY    74  70  89 S16G22    29.91R
ORD            LGT RAIN  71  67  87 E7        29.92F
BROKEN BOW     LGT RAIN  69  68  96 SE7       29.90F
VALENTINE NWR    N/A     75  61  61 SW10        N/A
BUTTE            N/A     76  67  73 W9          N/A
HALSEY           N/A     78  59  51 S15G25      N/A
EWING            N/A     73  70  91 S7G14       N/A
$$

...OBSERVATIONS IN SOUTHWEST NEBRASKA AND FAR NORTHEAST COLORADO...

CITY           SKY/WX    TMP DP  RH WIND       PRES   REMARKS
WRAY           FAIR      72  64  78 E6        29.99S
HOLYOKE        FAIR      73  64  73 W5        29.97F
IMPERIAL       CLOUDY    73  63  70 S18G28    29.90F
OGALLALA       PTCLDY    71  63  77 CALM      29.92F
NORTH PLATTE   CLOUDY    70  65  84 NE3       29.92S
MCCOOK         CLOUDY    72  66  81 E13       29.93F
LEXINGTON      LGT RAIN  71  68  90 CALM      29.95F
STAPLETON        N/A     68  65  90 CALM        N/A
GOTHENBURG       N/A     69  64  83 E3          N/A
CALLAWAY         N/A     67  65  95 SE14        N/A
$$

...OBSERVATIONS IN CENTRAL LINCOLN COUNTY AREA...

CITY           SKY/WX    TMP DP  RH WIND       PRES   REMARKS
N.P. AIRPORT   CLOUDY    70  65  84 NE3       29.92S
N.P. DOWNTOWN    N/A     71  67  86 CALM        N/A
N.P. SOUTHEAST   N/A     68  66  94 CALM        N/A
N.P. HILLCREST   N/A     71  65  81 SE5         N/A
$$

...SOME OBSERVATIONS FROM AROUND THE REGION...

CITY           SKY/WX    TMP DP  RH WIND       PRES   REMARKS
DENVER         PTCLDY    70  49  47 SW9       30.11F
LARAMIE        CLOUDY    58  44  60 S5        30.25F
CHEYENNE       CLOUDY    68  48  48 W7        30.16F
SCOTTSBLUFF    CLOUDY    64  60  87 E6        29.97F
RAPID CITY     CLOUDY    69  55  60 SE10      29.91F
BISMARCK       PTCLDY    69  64  84 N14       29.84F
PIERRE         CLOUDY    78  71  79 E12       29.84R
SIOUX FALLS    CLOUDY    80  77  90 E10       29.88F
OMAHA          CLOUDY    83  74  74 SE10      29.88F
GRAND ISLAND   CLOUDY    73  70  90 NW14      29.95F
KANSAS CITY    PTCLDY    79  73  82 S10       29.95F
WICHITA        PTCLDY    78  67  68 S7        29.95R
OKLAHOMA CITY  CLEAR     74  68  81 S6        29.98S
DALLAS         CLEAR     83  69  62 S7        29.96R
AMARILLO       CLEAR     72  53  51 S13       30.07S
DODGE CITY     CLOUDY    74  61  63 S9        29.98R
HAYS           CLOUDY    82  57  42 NW13      29.95R
GOODLAND       PTCLDY    69  66  90 E5        29.98F
$$




USA.gov is the U.S. government's official web portal to all federal, state and local government web resources and services.